World > North America > United States > Indiana

Michigan City, Indiana Regional Weather

Lat: 41.71N, Lon: 86.88W
Wx Zone: INZ003
Warning NWS WEATHER ALERT - (More Info. Click Here) Warning
Feedback

Michigan City, IN Regional Weather

Expires:201909222100;;192256
ASUS43 KIND 222009
RWRIN 

WEATHER ROUNDUP FOR INDIANA
NATIONAL WEATHER SERVICE INDIANAPOLIS IN
400 PM EDT SUN SEP 22 2019

NOTE: "FAIR" INDICATES FEW OR NO CLOUDS BELOW 12,000 FEET WITH NO
SIGNIFICANT WEATHER AND/OR OBSTRUCTIONS TO VISIBILITY.

* - STATION DOES NOT REPORT WEATHER SUCH AS PRECIPITATION OR FOG.

+ - STATION NOT QUALITY CONTROLLED BY THE NATIONAL WEATHER SERVICE.
    USE DATA WITH CAUTION...ESPECIALLY DEWPOINT AND RELATIVE
    HUMIDITY OBSERVATIONS.


INZ001>003-010>013-019-020-222100-
NORTHWEST INDIANA
  
CITY           SKY/WX    TMP DP  RH WIND       PRES   REMARKS
GARY /AIRPORT/ LGT RAIN  75  68  78 SW8       29.88F                  
KNOX *+        CLOUDY    79  61  53 SW14G20   29.90F                  
LA PORTE +     LGT RAIN  77  65  65 SW13G18   29.91F                  
MICHIGAN CITY+ LGT RAIN  73  72  94 SW9G17    29.90F                  
MONTICELLO +   CLOUDY    84  60  45 S17G23    29.92F                  
RENSSELAER +   CLOUDY    81  63  54 SW9G16    29.90F                  
VALPARAISO     LGT RAIN  78  65  63 SW12      29.90F                  

$$


SKY/WX - Weather  TMP - Temperature  DP - Dew Point  RH - Relative Humidity
WIND - Wind Direction/Speed PRES - Barometric Pressure VSB - Visibility
WCI - Wind Chill Index E13G22 Wind - East Wind 13 mph/Gusts of 22 mph